Back to catalog

SL-14 DEB

AlivePO
NORAD 20016·DEBRIS·🇷🇺 Russia

Launched Oct 26, 1978 from Plesetsk Cosmodrome

Loading…

Next Passes (next 24 hours)

TLE

FreshSource: Space-Track

Epoch: Sep 13, 2026, 13:15 UTC

1 20016U 78100AQ  26256.55231699  .00017818  00000-0  13896-1 0  9999
2 20016  82.8087 100.5873 0430285 292.0229  63.5739 13.56291309624202

Track SL-14 DEB in real time with AllMySat

Download on the App Store